Location: Claremont
(35.7250°N, 81.1500°W)
Time: 05:30:56
(UTC-04:00)

Daily predictions for brighter satellites

Satellite Brightness Start Highest point End
(mag) Time Altitude Azimuth Time Altitude Azimuth Time Altitude Azimuth
Cosmos 2219 Rocket 4.5 00:01:36 14° W 00:04:10 19° NW 00:08:05 10° NNW
Terra 4.4 00:23:54 16° NW 00:23:54 16° NW 00:25:07 10° NW
ATLAS 3B R/B 3.8 00:30:13 10° NNW 00:35:08 35° NNE 00:35:08 35° NNE
Cosmos 2369 Rocket 4.4 00:38:11 10° N 00:40:34 18° NNE 00:40:34 18° NNE
SL-16 R/B 4.2 01:04:06 22° NNW 01:04:06 22° NNW 01:07:09 10° N
ATLAS 2AS CENTAUR R/B 4.4 01:55:31 27° WNW 01:57:02 29° NW 02:03:52 10° NNE
NOSS 3-2 (A) 4.4 02:04:27 10° NNW 02:11:09 60° NNE 02:11:09 60° NNE
Cosmos 2369 Rocket 4.5 02:21:17 10° NNW 02:22:20 16° NW 02:22:20 16° NW
BREEZE M DEB (TANK) 4.3 02:06:20 10° NW 02:28:31 79° NNE 02:28:58 77° ENE
Cosmos 1943 Rocket 4.1 02:28:28 10° NNW 02:30:30 23° NNW 02:30:30 23° NNW
Lacrosse 5 rocket 4.0 02:52:20 20° NE 02:52:20 20° NE 02:53:47 10° NE
COSMOS 2406 4.1 03:02:16 45° NNE 03:02:16 45° NNE 03:06:11 10° NNE
USA 215 3.7 02:54:36 10° NE 03:00:37 54° NNW 03:00:37 54° NNW
ADEOS Rocket 3.9 03:11:49 10° NNE 03:17:49 44° E 03:18:33 43° ESE
Cosmos 1821 Rocket 4.2 03:14:58 10° N 03:20:58 61° E 03:20:58 61° E
NOSS 3-2 (C) 4.4 03:16:28 10° NW 03:22:04 49° WNW 03:22:04 49° WNW
CENTAUR R/B 3.7 03:16:23 10° NNW 03:24:11 54° NE 03:32:24 10° SE
USA 267 4.5 03:25:06 10° ESE 03:31:05 40° NE 03:37:04 10° NNW
Resurs 1-4 Rocket 2.6 03:30:34 10° NNE 03:35:17 55° ENE 03:35:17 55° ENE
Cosmos 1934 Rocket 4.2 03:31:15 10° N 03:37:33 65° E 03:38:36 56° SE
Cosmos 1535 Rocket 4.4 03:33:36 10° N 03:39:47 84° ENE 03:39:47 84° ENE
IRS-1D 3.9 03:34:49 10° NNE 03:39:35 62° ENE 03:39:35 62° ENE
COSMOS 2455 4.1 03:34:36 10° NW 03:37:28 28° NW 03:37:28 28° NW
SL-16 R/B 2.7 03:39:58 55° SE 03:41:12 69° ENE 03:47:20 10° N
ARIANE 5 R/B 2.8 03:39:56 10° NNE 03:44:46 65° ENE 03:44:46 65° ENE
ADEOS 3.7 03:41:03 10° NNE 03:45:53 68° ENE 03:45:53 68° ENE
Cosmos 1953 4.2 03:47:53 10° N 03:49:46 27° N 03:49:46 27° N
UNKNOWN OBJECT B 4.3 03:49:39 10° NNE 03:52:51 34° E 03:52:51 34° E
Cosmos-2242 4.2 03:50:38 10° N 03:54:46 39° E 03:55:10 38° E
CZ-2D R/B 2.0 03:51:14 10° NNE 03:56:18 83° NNE 03:56:18 83° NNE
Cosmos 921 Rocket 4.2 03:55:40 10° NNW 03:58:27 37° NNW 03:58:27 37° NNW
COSMOS 2487 3.9 04:10:22 36° NNE 04:10:22 36° NNE 04:12:38 10° NNE
Cosmos 839 Rocket 4.4 04:03:46 10° NNW 04:10:14 73° ENE 04:18:02 10° SSE
Cosmos 1818 4.2 04:14:38 40° WNW 04:14:48 40° NW 04:19:56 10° NNE
Cosmos 2369 4.4 04:10:24 10° NNW 04:16:01 53° ENE 04:21:36 10° SE
CZ-2D R/B 3.5 04:17:49 10° NNE 04:21:47 69° E 04:21:47 69° E
Meteor 2-15 4.4 04:20:54 40° S 04:23:18 83° E 04:29:27 10° N
Cosmos 1833 Rocket 3.0 04:21:58 40° S 04:23:51 61° ESE 04:29:23 10° NNE
Cosmos 1269 Rocket 4.5 04:23:54 35° SSE 04:25:51 56° ESE 04:31:01 10° NNE
OAO 1 4.4 04:25:13 63° SW 04:26:01 77° S 04:31:30 10° E
Lacrosse 5 rocket 3.5 04:28:02 19° NW 04:28:50 19° NW 04:32:12 10° N
Cosmos 2082 Rocket 2.3 04:27:15 43° S 04:29:09 76° ESE 04:34:51 10° NNE
CZ-3A R/B 4.4 04:26:40 13° SSE 04:30:29 20° SE 04:43:22 10° E
GEOS 3 Rocket 4.1 04:27:44 10° NNE 04:32:50 50° NW 04:34:03 42° W
Meteor 2-15 Rocket 4.4 04:30:02 31° S 04:33:09 83° E 04:39:19 10° N
DNEPR-1 R/B 3.5 04:29:35 10° NNW 04:33:51 87° ENE 04:38:30 10° SSE
ADEOS II 3.7 04:31:35 10° NE 04:36:14 31° E 04:40:50 10° SSE
Meteor 2-5 Rocket 3.7 04:37:49 38° SSW 04:40:07 79° W 04:45:59 10° N
Landsat 4 4.5 04:41:50 11° SSE 04:45:21 50° ENE 04:48:59 10° N
Cosmos 1727 Rocket 4.1 04:45:02 37° SW 04:47:09 53° W 04:53:10 10° N
Cosmos 1378 3.2 04:49:57 56° W 04:50:00 56° W 04:53:42 10° N
Cosmos 158 Rocket 3.8 04:48:19 34° SSW 04:50:34 87° ESE 04:55:43 10° NNE
GPS 2-05 Rocket1 2.7 04:52:42 71° SW 04:53:00 80° S 04:56:31 10° E
Cosmos 389 Rocket 4.0 04:49:51 10° NNW 04:51:42 24° NW 04:51:42 24° NW
Cosmos 1707 3.7 04:53:47 31° WNW 04:53:47 31° WNW 04:56:54 10° NNW
Meteor 1-16 Rocket 3.9 04:53:45 10° NNW 04:59:05 75° W 05:04:22 10° S
Okean 3 Rocket 4.5 04:56:29 10° SSE 05:00:43 48° E 05:04:59 10° NNE
CZ-4B R/B 3.6 04:58:11 10° NNE 05:02:33 58° E 05:06:46 11° S
ADEOS Rocket 4.2 04:57:54 10° NNW 05:03:05 28° WNW 05:05:31 22° W
In-Cosmos 22 4.3 05:02:27 10° S 05:07:44 70° E 05:12:59 10° NNE
Intelsat 5-3 Rocket 4.3 05:12:17 17° SSW 05:12:17 17° SSW 05:14:23 10° SSE
USA 267 3.3 05:07:29 10° SSE 05:13:53 57° SW 05:20:19 10° NW
BREEZE-M DEB (TANK) 4.3 05:07:36 19° SW 05:14:15 56° SSE 05:17:58 10° ENE
CENTAUR R/B 3.6 05:07:36 10° NW 05:14:45 35° WSW 05:22:07 10° S
Resurs 1-4 Rocket 3.8 05:11:59 10° NNW 05:15:05 16° WNW 05:16:22 15° W
Cosmos 1459 Rocket 3.9 05:09:24 10° N 05:15:36 77° W 05:21:51 10° S
USA 161 3.4 05:18:46 17° WNW 05:18:46 17° WNW 05:19:53 10° NW
NOSS 8 (H) 4.3 05:16:30 30° SW 05:18:04 81° WNW 05:21:30 10° NNE
Okean O Rocket 1.6 05:15:31 10° NNE 05:19:58 89° W 05:24:12 11° SSW
Cosmos 1802 Rocket 4.0 05:13:39 10° N 05:20:06 84° W 05:26:27 10° S
Orbus 7S? 2.6 05:17:57 10° NW 05:20:51 75° NE 05:23:31 10° SE
ARIANE 5 R/B 4.4 05:21:08 10° NW 05:23:37 14° WNW 05:25:07 12° W
SL-16 R/B 4.0 05:25:02 15° W 05:25:16 15° W 05:28:45 10° WNW
Meteor 2-17 Rocket 4.4 05:21:58 10° N 05:28:00 73° W 05:34:01 10° S
Cosmos 1725 Rocket 4.5 05:23:49 10° N 05:30:05 67° E 05:36:20 10° SSE
Meteor 1-24 Rocket 4.1 05:27:00 15° SW 05:31:12 45° WNW 05:36:38 10° N
Delta 2 Rocket 3.3 05:33:16 20° WSW 05:35:06 37° SSW 05:38:13 10° SE
Cosmos 1408 Rocket 4.4 05:31:03 10° S 05:35:23 54° E 05:39:44 10° NNE
MOS 1 Rocket 4.5 05:33:56 10° NNW 05:37:23 23° WNW 05:39:49 15° WSW
Tiangong 1 1.9 05:37:48 21° WSW 05:38:45 26° SW 05:41:10 10° SSE
Cosmos 1697 Rocket 2.7 05:33:49 10° NNW 05:39:20 61° WSW 05:44:50 10° S
SL-08 R/B 4.4 05:33:58 10° N 05:40:05 84° W 05:46:09 10° S
DELTA 2 R/B(2) 3.3 05:40:58 24° W 05:41:44 48° NNW 05:43:27 10° ENE
PSLV R/B 3.7 05:41:37 10° N 05:45:53 57° WNW 05:50:05 10° SSW
CZ-4B DEB 4.3 05:42:20 10° N 05:47:45 63° WNW 05:53:07 10° SSW
GENESIS II 4.1 05:44:32 10° NNW 05:48:29 82° WSW 05:52:20 10° SSE
SL-24 R/B 4.1 05:46:34 10° N 05:51:01 64° WNW 05:55:09 10° SSW
Cosmos 2221 2.6 05:47:46 10° NNW 05:51:56 53° W 05:56:04 10° S
MTI 3.9 05:55:57 10° S 05:59:07 53° W 06:02:18 10° NNW
Cosmos 1674 2.8 05:57:08 10° SSW 06:00:51 55° W 06:04:37 10° N
Cosmos 1110 Rocket 4.0 05:57:16 10° NNW 06:02:35 75° WSW 06:07:50 10° S
EO 1 Del DPAF 3.4 05:59:22 10° S 06:03:05 50° W 06:06:52 10° NNW
Cosmos 2322 Rocket 3.7 06:00:37 10° N 06:06:02 44° ENE 06:11:25 10° SE
Cosmos 1833 Rocket 4.3 06:04:33 10° W 06:08:12 17° NW 06:11:52 10° NNW
Meteor PRIRODA 3.8 06:06:05 10° N 06:09:40 52° WNW 06:13:14 10° SSW
IRAS Rocket 4.4 06:04:30 10° N 06:10:04 62° WNW 06:15:36 10° SSW
CZ-3 R/B 3.2 05:54:17 10° SW 06:10:55 37° S 06:16:11 10° ESE
